Location: Newark
(49.8348°N, 24.0280°E)
Time: 05:51:28
(UTC+00:00)

Transit 2A - Pass Details

Date: 25 January 2020
Orbit: 600 x 959 km, 66.7° (Epoch: 17 February)

Event Time Altitude Azimuth Distance (km) Brightness Sun altitude
Rises 21:20:47 0° 287° (WNW) 2,852 - -55.6°
Reaches altitude 10° 21:24:31 10° 320° (NW) 1,960 - -55.9°
Maximum altitude 21:26:08 12° 342° (NNW) 1,857 - -56.1°
Drops below altitude 10° 21:27:46 10° 4° (N) 1,989 - -56.2°
Sets 21:31:38 0° 37° (NE) 2,952 - -56.5°
